Vorticity
-3 4 10 2 3 8 13 7 5 25 6 2 9 -1 4 7 7 7 7 6 4 5 6 6 6 11 10 9 6 8 8 7 8 7 6 7 7 8 5 1 4 9 11
9 12 11 11 16 43 -3 6 6 1 3 5 4 3 6 6 8 6 5 4 5 7 6 9 8 7 8 7 7 10 10 8 5 6 8 7 7 4 4 4 8 12 11
7 21 4 -8 2 2 2 4 13 3 6 7 2 4 7 8 6 5 5 6 7 6 7 6 7 7 8 7 10 10 8 7 5 4 6 8 6 6 5 9 12 12 14
7 3 -2 3 7 7 15 1 8 7 6 3 6 7 9 7 6 6 6 5 7 7 6 6 8 9 9 10 10 8 7 4 5 4 5 7 8 11 11 16 11 19 20
12 9 9 10 9 6 8 4 8 6 4 6 10 9 6 6 5 5 6 7 8 7 6 9 11 10 11 9 6 8 8 6 5 3 8 8 11 9 13 14 18 23 20
7 9 11 12 11 12 11 6 7 7 9 12 8 6 6 5 4 6 7 7 4 6 8 8 9 10 7 4 7 6 6 6 6 7 7 9 10 10 11 17 24 18 1
6 8 11 11 11 9 9 9 10 10 11 7 7 4 3 4 5 6 8 6 7 9 10 8 9 5 9 8 2 3 7 8 6 3 4 14 5 12 17 23 27 16 13
8 8 9 7 9 7 12 10 10 9 7 5 2 2 3 5 7 8 6 8 8 10 4 7 6 5 2 1 3 1 0 2 3 9 9 7 10 14 19 21 20 19 19
8 7 8 8 9 10 7 11 7 5 2 1 2 2 5 8 8 6 7 8 11 4 5 4 4 3 3 5 12 4 -1 1 1 2 11 12 15 17 20 21 23 26 24
10 8 9 8 9 7 10 6 4 1 0 1 3 3 9 8 9 10 10 12 3 -0 3 7 7 8 8 7 8 10 10 7 4 7 16 16 17 21 23 21 22 25 30
11 12 12 10 9 8 5 3 1 1 1 2 4 9 8 9 11 10 8 2 1 9 8 7 6 9 11 7 9 8 5 3 9 11 16 18 23 23 24 16 27 23 28
13 11 10 10 6 4 2 0 1 1 2 6 9 8 9 9 8 6 3 9 -7 -3 7 6 12 9 8 8 6 3 3 10 14 17 15 21 24 18 22 17 32 23 24
10 9 6 4 3 2 1 1 1 4 5 8 10 6 15 7 -1 6 10 7 9 3 8 7 8 5 8 6 4 6 15 16 15 12 21 21 19 15 13 26 35 24 35
6 4 3 2 2 1 2 3 4 7 6 8 11 7 10 -4 -7 1 9 11 -6 7 13 8 6 7 7 3 7 15 22 14 10 16 20 19 19 19 13 37 35 19 23
4 4 3 1 1 3 4 0 7 5 11 9 8 7 10 7 7 9 20 -1 3 9 9 9 8 4 4 8 11 20 17 10 15 19 18 18 20 7 33 38 30 17 28
4 2 1 1 3 4 2 9 2 9 15 -5 7 13 -0 2 6 13 1 4 5 9 9 6 4 5 10 12 21 17 11 16 17 20 17 20 14 27 29 34 26 18 35
2 1 3 4 -1 5 5 5 14 10 8 6 8 1 1 20 5 -4 4 2 7 14 7 4 6 10 15 20 16 11 16 19 21 18 23 20 15 33 25 28 27 32 15
4 5 6 9 17 7 17 5 -3 -1 -2 0 -0 1 20 4 8 6 6 14 7 4 4 6 13 16 16 12 12 16 19 23 17 18 21 8 30 28 20 24 18 18 25
8 14 12 8 7 9 5 -1 4 8 7 11 11 10 8 -1 -3 5 7 3 1 4 7 13 15 13 10 15 17 19 22 20 18 20 17 13 29 27 19 22 14 15 16
9 -2 6 6 2 0 -2 7 16 15 10 7 11 11 7 8 7 4 0 1 7 8 16 18 11 14 16 17 18 21 22 19 17 19 11 24 26 28 21 17 21 7 22
6 11 3 4 6 9 12 14 10 7 8 10 10 10 7 7 2 2 7 9 13 21 13 13 16 17 19 18 19 21 21 19 16 16 13 27 26 28 20 14 15 25 16
12 7 7 10 13 16 11 3 8 10 10 9 7 9 3 1 3 5 8 14 11 12 16 19 20 19 14 15 20 23 20 16 15 15 26 20 24 30 15 16 7 24 14
22 20 23 16 6 8 14 12 10 9 8 8 3 1 5 5 8 13 14 15 19 22 21 16 14 13 17 21 24 22 20 17 16 21 24 20 23 30 14 17 22 31 10
6 6 9 10 9 9 8 7 6 5 2 1 4 5 8 13 14 16 21 22 19 16 10 13 17 21 23 22 23 23 18 18 21 23 19 20 24 27 16 18 2 -3 10
10 11 9 9 7 6 5 2 1 3 5 8 11 14 14 17 21 20 17 15 13 15 20 17 16 21 26 26 25 19 20 20 21 19 18 22 28 25 18 18 2 8 11
8 5 3 3 2 2 4 6 6 9 11 12 15 20 22 19 16 14 15 16 16 13 14 22 26 26 26 26 21 20 17 20 18 17 19 24 33 26 15 6 9 2 14
Height
5727 5726 5727 5726 5725 5723 5722 5717 5723 5718 5721 5721 5720 5720 5720 5716 5713 5710 5706 5702 5698 5693 5689 5684 5678 5671 5664 5659 5651 5643 5636 5628 5625 5621 5612 5602 5594 5580 5568 5561 5553 5543 5534
5721 5722 5718 5714 5708 5693 5714 5712 5702 5708 5713 5716 5712 5711 5709 5706 5704 5701 5696 5692 5687 5682 5677 5671 5665 5659 5653 5644 5636 5629 5622 5614 5608 5605 5598 5589 5578 5565 5553 5541 5531 5524 5515
5714 5707 5705 5708 5706 5710 5711 5708 5709 5708 5708 5703 5703 5703 5700 5697 5694 5690 5685 5682 5676 5671 5664 5657 5650 5645 5638 5630 5624 5616 5608 5600 5592 5587 5583 5575 5565 5550 5537 5524 5512 5501 5492
5705 5704 5703 5705 5704 5703 5702 5703 5701 5700 5698 5697 5696 5694 5691 5687 5684 5679 5675 5670 5664 5657 5650 5644 5637 5630 5625 5618 5611 5602 5593 5585 5575 5568 5562 5557 5545 5536 5517 5503 5489 5479 5469
5700 5700 5700 5698 5697 5696 5694 5695 5695 5692 5690 5688 5686 5683 5680 5677 5673 5669 5664 5658 5652 5645 5637 5630 5624 5617 5610 5604 5597 5588 5578 5568 5559 5551 5544 5532 5525 5513 5499 5486 5468 5458 5451
5696 5695 5694 5694 5693 5692 5690 5689 5687 5684 5681 5679 5676 5673 5670 5666 5662 5657 5651 5644 5637 5631 5624 5616 5609 5603 5596 5590 5581 5572 5562 5552 5544 5530 5524 5510 5503 5486 5475 5462 5448 5436 5429
5690 5688 5688 5686 5684 5682 5681 5679 5677 5674 5672 5669 5667 5663 5660 5655 5650 5643 5637 5630 5624 5617 5609 5603 5596 5589 5582 5574 5566 5558 5547 5534 5520 5509 5499 5491 5476 5467 5452 5440 5431 5421 5412
5679 5678 5677 5676 5674 5673 5671 5670 5668 5666 5663 5660 5657 5653 5648 5643 5637 5631 5624 5617 5610 5602 5595 5589 5581 5573 5565 5559 5552 5543 5533 5520 5507 5493 5477 5467 5455 5443 5429 5415 5407 5399 5394
5668 5667 5666 5665 5664 5663 5660 5659 5657 5655 5652 5649 5645 5641 5635 5630 5623 5615 5609 5602 5595 5589 5582 5573 5565 5555 5545 5538 5532 5525 5517 5505 5491 5477 5462 5448 5434 5422 5411 5393 5389 5381 5374
5658 5657 5656 5655 5653 5652 5651 5649 5647 5644 5641 5636 5632 5627 5622 5615 5608 5602 5596 5588 5583 5576 5566 5556 5546 5537 5527 5516 5505 5497 5491 5482 5471 5463 5449 5434 5418 5406 5393 5380 5369 5361 5357
5648 5648 5646 5644 5643 5641 5640 5638 5635 5632 5628 5623 5618 5613 5607 5601 5594 5586 5579 5573 5565 5557 5548 5538 5528 5518 5507 5495 5483 5472 5462 5454 5445 5432 5423 5411 5398 5384 5375 5366 5353 5345 5340
5637 5636 5635 5634 5634 5632 5629 5627 5623 5618 5613 5608 5604 5597 5591 5585 5577 5570 5562 5556 5548 5540 5531 5522 5511 5500 5489 5477 5465 5452 5440 5427 5416 5406 5395 5383 5372 5361 5353 5345 5337 5330 5326
5626 5625 5624 5623 5621 5619 5616 5613 5608 5603 5597 5591 5587 5581 5575 5568 5561 5554 5546 5537 5529 5521 5512 5502 5492 5480 5469 5457 5445 5432 5419 5406 5394 5382 5371 5360 5349 5340 5332 5325 5320 5316 5313
5617 5616 5614 5611 5609 5606 5601 5597 5593 5587 5581 5574 5567 5563 5558 5550 5543 5535 5527 5517 5510 5502 5491 5480 5468 5459 5449 5438 5425 5412 5398 5386 5373 5362 5351 5341 5332 5322 5314 5305 5303 5303 5302
5608 5605 5601 5599 5596 5592 5586 5581 5575 5570 5563 5557 5549 5543 5536 5530 5524 5515 5505 5497 5489 5480 5469 5459 5448 5438 5429 5418 5405 5393 5380 5367 5355 5342 5331 5322 5313 5305 5297 5290 5289 5291 5293
5595 5591 5587 5585 5582 5577 5570 5563 5558 5552 5546 5540 5533 5525 5516 5508 5502 5494 5485 5476 5467 5458 5447 5438 5427 5418 5407 5396 5384 5373 5360 5347 5335 5325 5314 5304 5297 5289 5282 5278 5278 5280 5283
5579 5575 5572 5569 5562 5558 5553 5546 5539 5533 5527 5520 5513 5505 5497 5488 5479 5472 5464 5454 5444 5435 5426 5415 5404 5393 5382 5370 5360 5350 5339 5327 5316 5307 5298 5289 5282 5273 5270 5268 5269 5271 5274
5563 5559 5553 5548 5545 5540 5534 5528 5520 5513 5507 5500 5493 5485 5475 5465 5456 5450 5443 5433 5422 5411 5401 5390 5379 5367 5357 5348 5338 5328 5317 5307 5298 5290 5282 5274 5268 5262 5259 5259 5261 5263 5267
5544 5540 5535 5531 5525 5519 5514 5508 5502 5496 5489 5482 5474 5467 5458 5448 5437 5428 5420 5412 5402 5390 5379 5367 5355 5345 5335 5325 5315 5306 5296 5288 5281 5274 5268 5261 5255 5251 5249 5251 5253 5255 5257
5527 5522 5517 5512 5506 5501 5495 5489 5482 5475 5467 5459 5452 5445 5438 5430 5419 5409 5399 5389 5378 5366 5354 5343 5333 5322 5312 5303 5294 5285 5277 5270 5264 5259 5254 5248 5244 5241 5240 5242 5245 5247 5250
5508 5503 5499 5492 5486 5480 5474 5467 5461 5453 5446 5438 5431 5422 5414 5405 5395 5384 5373 5362 5351 5340 5330 5320 5310 5300 5291 5282 5273 5266 5259 5253 5248 5245 5240 5235 5233 5231 5232 5234 5237 5240 5244
5489 5484 5478 5472 5467 5460 5454 5448 5440 5433 5426 5418 5409 5401 5391 5381 5371 5359 5348 5337 5327 5316 5306 5297 5287 5278 5269 5261 5254 5247 5242 5237 5232 5229 5226 5223 5222 5221 5223 5226 5230 5233 5238
5469 5465 5459 5453 5447 5440 5434 5427 5419 5412 5404 5395 5386 5376 5365 5354 5343 5334 5323 5313 5303 5292 5282 5272 5265 5257 5248 5240 5233 5229 5226 5221 5218 5215 5213 5212 5211 5212 5215 5219 5223 5227 5233
5452 5446 5440 5434 5427 5420 5414 5406 5397 5389 5381 5372 5361 5349 5338 5328 5317 5307 5297 5288 5279 5268 5258 5251 5243 5235 5228 5221 5215 5211 5209 5206 5204 5202 5201 5201 5201 5203 5208 5213 5218 5223 5227
5432 5426 5420 5414 5407 5399 5390 5382 5372 5363 5354 5344 5333 5323 5312 5301 5291 5282 5272 5264 5256 5246 5237 5228 5221 5214 5208 5203 5199 5196 5194 5192 5191 5190 5190 5190 5191 5195 5201 5206 5212 5217 5222
5412 5405 5398 5390 5382 5374 5365 5356 5346 5336 5326 5315 5304 5294 5284 5275 5266 5258 5249 5240 5232 5223 5215 5208 5201 5196 5191 5188 5185 5183 5182 5180 5179 5179 5179 5180 5182 5187 5194 5200 5205 5211 5216